Weather in Candidasa

Indonesia     8°28′36″S   115°37′12″E
temp.,
°C
wind,
m/s
gust,
m/s
humid.,
%
clouds,
%
prec.,
mm/h
press.,
hPa
HPBL,
m
20 january, thu
thu2023:00+23wnw2390100 0.2 101083
02:00+23wnw2387100 0.2 100877
05:00+22wnw228980 0.1 100867
08:00+25wnw138073 0.4 1010286
11:00+28ssw237035 2.2 10101003
14:00+27sw237662 6.2 1008765
17:00+24wsw1387100 1.1 1008126
20:00+23wnw2388100 1.4 101087
21 january, fri
fri2123:00+23wnw2588100 0.1 1011156
02:00+23wnw368562 0.2 1009258
05:00+23wnw3784100 0.1 1009302
08:00+24wnw268263 0.2 1011282
11:00+29wsw365989 0.0 10101313
14:00+26wsw3777100 0.0 1008560
17:00+26sw3577100 0.5 1007755
20:00+23wnw2594100 3.4 1010173
22 january, sat
sat2223:00+23wnw2291100 0.0 101164
02:00+22wnw2591100 0.0 1008122
05:00+22wnw2591100 0.0 1008118
08:00+24w3780100 0.0 1010534
11:00+29wsw4760100 0.0 10101333
14:00+28wsw4762100 0.3 10081259
17:00+27w4769100 0.1 1007935
20:00+24wnw3682100 0.1 1009262
23 january, sun
sun2323:00+24wnw3782100 0.0 1009316
02:00+23wnw3680100 0.0 1008294
05:00+23wnw3883100 0.0 1007431
08:00+25w3882100 0.0 1009674
11:00+29wsw4761100 0.4 10081340
14:00+29sw476591 1.2 10061298
17:00+28wsw46667 1.0 10051093
20:00+24w388646 1.7 1008474
24 january, mon
mon2423:00+24wnw2685100 0.7 1008246
02:00+24wnw26836 0.8 1006279
05:00+23nw36869 0.5 1006193
08:00+26wnw26735 0.6 1007597
11:00+31sw355249 0.0 10061390
14:00+27w2573100 0.8 1004682
17:00+28wsw466866 0.5 10041124
20:00+24wnw278997 1.3 1006368